This is the latest recevied weather packets stored in our database for station/object N9BLE. If no packets are shown the sender has not sent any weather packets the latest 10 day(s).
| Time | Temp. | Humidity | Pressure | Rain* | Wind** | Luminosity | Snow |
|---|---|---|---|---|---|---|---|
| 1777147721 | 19.44° C | 55% | 1018.3 hPa | 0 mm | - | 632 W/m² | - |
| 1777147417 | 19.44° C | 54% | 1018.3 hPa | 0 mm | - | 604 W/m² | - |
| 1777147112 | 19.44° C | 54% | 1018.6 hPa | 0 mm | - | 640 W/m² | - |
| 1777146808 | 19.44° C | 56% | 1018.5 hPa | 0 mm | - | 657 W/m² | - |
| 1777146505 | 18.89° C | 57% | 1018.6 hPa | 0 mm | - | 654 W/m² | - |
| 1777146201 | 18.89° C | 56% | 1018.5 hPa | 0 mm | - | 649 W/m² | - |
| 1777145897 | 19.44° C | 55% | 1018.5 hPa | 0 mm | - | 683 W/m² | - |
| 1777145594 | 19.44° C | 59% | 1018.6 hPa | 0 mm | - | 685 W/m² | - |
| 1777145288 | 18.89° C | 58% | 1018.5 hPa | 0 mm | - | 698 W/m² | - |
| 1777144983 | 18.89° C | 59% | 1018.5 hPa | 0 mm | - | 696 W/m² | - |
| 1777144683 | 19.44° C | 58% | 1018.5 hPa | 0 mm | - | 691 W/m² | - |
| 1777144377 | 18.89° C | 58% | 1018.6 hPa | 0 mm | - | 713 W/m² | - |
| 1777144074 | 19.44° C | 55% | 1018.6 hPa | 0 mm | - | 719 W/m² | - |
| 1777143771 | 18.89° C | 57% | 1018.5 hPa | 0 mm | - | 729 W/m² | - |
| 1777143467 | 18.89° C | 58% | 1018.5 hPa | 0 mm | - | 720 W/m² | - |
| 1777143163 | 18.89° C | 57% | 1018.5 hPa | 0 mm | - | 735 W/m² | - |
| 1777142858 | 18.89° C | 58% | 1018.3 hPa | 0 mm | - | 727 W/m² | - |
| 1777142556 | 18.33° C | 58% | 1018.4 hPa | 0 mm | - | 736 W/m² | - |
| 1777142254 | 18.89° C | 57% | 1018.4 hPa | 0 mm | - | 750 W/m² | - |
| 1777141952 | 18.33° C | 61% | 1018.5 hPa | 0 mm | - | 745 W/m² | - |
| 1777141649 | 17.78° C | 60% | 1018.6 hPa | 0 mm | - | 750 W/m² | - |
| 1777141348 | 18.33° C | 59% | 1018.7 hPa | 0 mm | - | 752 W/m² | - |
| 1777141044 | 17.78° C | 59% | 1018.7 hPa | 0 mm | - | 754 W/m² | - |
| 1777140741 | 17.78° C | 59% | 1018.8 hPa | 0 mm | - | 758 W/m² | - |
| 1777140437 | 17.22° C | 60% | 1018.8 hPa | 0 mm | - | 750 W/m² | - |
* Rain latest hour (hover to see other rain measurements)
** Current wind speed in m/s (hover to see current wind gust speed)